Location: *
(37.5724°S, 58.0067°E)
Time: 10:29:23
(UTC+00:00)

Gblst 52 Del rocket - Pass Details

Date: 26 September 2020
Orbit: 805 x 1365 km, 51.5° (Epoch: 29 October)

Event Time Altitude Azimuth Distance (km) Brightness Sun altitude
Exits shadow 23:21:07 76° 204° (SSW) 945 4.3 -29.0°
Drops below altitude 10° 23:26:49 10° 132° (SE) 2,491 7.5 -28.0°
Sets 23:29:13 0° 130° (SE) 3,391 8.5 -27.6°
